Location: Bremen
(53.0793°N, 8.8017°E)
Time: 14:49:47
(UTC+01:00)

S-56A Canister/Altair - Pass Details

Date: 08 December 2021
Orbit: 634 x 2499 km, 38.9° (Epoch: 28 January)

Event Time Altitude Azimuth Distance (km) Brightness Sun altitude
Rises 23:27:06 0° 233° (SW) 5,626 - -58.3°
Reaches altitude 10° 23:31:45 10° 224° (SW) 4,340 - -58.5°
Maximum altitude 23:40:41 29° 171° (S) 2,498 - -59.0°
Drops below altitude 10° 23:47:13 10° 115° (ESE) 3,114 - -59.2°
Sets 23:49:57 0° 104° (ESE) 3,837 - -59.3°
